Weather History for Rice Lake, WI

Change the Weather History Date:

Wednesday, January 8, 2014

  Actual Average Record
Temperature  
Mean Temperature -14 °F -  
Max Temperature 0 °F 20 °F - (-1)
Min Temperature -28 °F 5 °F - (-1)
Degree Days  
Heating Degree Days 78    
Moisture  
Dew Point -23 °F    
Average Humidity 70    
Maximum Humidity 79    
Minimum Humidity 57    
Precipitation  
Precipitation 0.00 in - - ()
Sea Level Pressure  
Sea Level Pressure 30.37 in    
Wind  
Wind Speed 1 mph (WSW)    
Max Wind Speed 6 mph    
Max Gust Speed -    
Visibility 10 miles    
Events      
Averages and records for this station are not official NWS values.
T = Trace of Precipitation, MM = Missing Value Source: NWS Daily Summary

Daily Weather History Graph

Daily Weather History Graph

Search for Another Location

Airport:

Trip Planner

Search our weather history database for the weather conditions in past years. The results will help you decide how hot, cold, wet, or windy it might be!

Date:

Astronomy

Jan. 08, 2014 Rise Set
Actual Time 7:46 AM CST 4:42 PM CST
Civil Twilight 7:12 AM CST 5:15 PM CST
Nautical Twilight 6:35 AM CST 5:52 PM CST
Astronomical Twilight 5:59 AM CST 6:28 PM CST
Moon 11:44 AM CST (1/8) 12:41 AM CST (1/8)
Length of Visible Light 10h 03m
Length of Day
8h 55m
First Quarter, 56% of the Moon is Illuminated
Jan 8
First Quarter
Jan 15
Full
Jan 23
Last Quarter
Jan 30
New
Feb 6
First Quarter

Hourly Weather History & Observations

Time (CST) Temp. Windchill Dew Point Humidity Pressure Visibility Wind Dir Wind Speed Gust Speed Precip Events Conditions
12:15 AM -20.7 °F - -27.6 °F 71% 30.22 in 10.0 mi Calm Calm - N/A   Clear
12:35 AM -21.1 °F - -27.2 °F 73% 30.22 in 10.0 mi Calm Calm - N/A   Scattered Clouds
12:55 AM -21.6 °F - -27.8 °F 73% 30.23 in 10.0 mi Calm Calm - N/A   Mostly Cloudy
1:15 AM -21.3 °F - -27.9 °F 71% 30.23 in 10.0 mi Calm Calm - N/A   Overcast
1:35 AM -19.8 °F - -26.5 °F 71% 30.23 in 10.0 mi Calm Calm - N/A   Overcast
1:55 AM -20.7 °F - -27.4 °F 71% 30.24 in 10.0 mi Calm Calm - N/A   Overcast
2:15 AM -21.3 °F - -27.8 °F 72% 30.25 in 10.0 mi Calm Calm - N/A   Mostly Cloudy
2:35 AM -20.9 °F - -27.2 °F 73% 30.25 in 10.0 mi Calm Calm - N/A   Clear
2:55 AM -22.4 °F - -28.5 °F 73% 30.26 in 10.0 mi Calm Calm - N/A   Clear
3:15 AM -23.3 °F - -29.6 °F 72% 30.26 in 10.0 mi Calm Calm - N/A   Mostly Cloudy
3:35 AM -23.3 °F - -29.4 °F 73% 30.26 in 10.0 mi Calm Calm - N/A   Mostly Cloudy
3:55 AM -22.0 °F - -28.3 °F 73% 30.26 in 10.0 mi Calm Calm - N/A   Scattered Clouds
4:15 AM -23.6 °F - -29.7 °F 73% 30.26 in 10.0 mi Calm Calm - N/A   Scattered Clouds
4:35 AM -22.7 °F - -28.8 °F 73% 30.26 in 10.0 mi Calm Calm - N/A   Scattered Clouds
4:55 AM -24.5 °F - -30.6 °F 73% 30.27 in 10.0 mi Calm Calm - N/A   Clear
5:15 AM -22.9 °F - -29.0 °F 73% 30.27 in 10.0 mi Calm Calm - N/A   Clear
5:35 AM -22.9 °F - -29.2 °F 72% 30.28 in 10.0 mi Calm Calm - N/A   Clear
5:55 AM -24.2 °F - -30.1 °F 74% 30.28 in 10.0 mi Calm Calm - N/A   Clear
6:15 AM -23.1 °F - -29.4 °F 72% 30.29 in 10.0 mi Calm Calm - N/A   Clear
6:35 AM -24.5 °F - -30.5 °F 74% 30.29 in 10.0 mi Calm Calm - N/A   Clear
6:55 AM -22.0 °F - -28.5 °F 72% 30.30 in 10.0 mi Calm Calm - N/A   Clear
7:15 AM -24.9 °F - -31.0 °F 73% 30.30 in 10.0 mi Calm Calm - N/A   Clear
7:35 AM -23.6 °F - -29.4 °F 74% 30.32 in 10.0 mi Calm Calm - N/A   Clear
7:55 AM -24.0 °F - -29.7 °F 74% 30.33 in 10.0 mi Calm Calm - N/A   Clear
8:15 AM -24.9 °F - -31.0 °F 73% 30.34 in 10.0 mi Calm Calm - N/A   Clear
8:35 AM -22.4 °F - -28.3 °F 74% 30.35 in 10.0 mi Calm Calm - N/A   Clear
8:55 AM -22.4 °F - -28.3 °F 74% 30.37 in 10.0 mi Calm Calm - N/A   Clear
9:15 AM -19.1 °F - -26.0 °F 71% 30.38 in 10.0 mi Calm Calm - N/A   Clear
9:35 AM -16.6 °F - -22.7 °F 74% 30.39 in 10.0 mi Calm Calm - N/A   Clear
9:55 AM -15.5 °F - -21.3 °F 75% 30.40 in 10.0 mi Calm Calm - N/A   Clear
10:15 AM -13.2 °F - -19.1 °F 75% 30.41 in 10.0 mi Calm Calm - N/A   Clear
10:35 AM -12.1 °F - -18.4 °F 74% 30.40 in 10.0 mi Calm Calm - N/A   Clear
10:55 AM -10.8 °F - -17.7 °F 72% 30.41 in 10.0 mi Calm Calm - N/A   Clear
11:15 AM -9.6 °F - -17.1 °F 69% 30.41 in 10.0 mi Calm Calm - N/A   Clear
11:35 AM -8.5 °F -17.6 °F -16.8 °F 67% 30.41 in 10.0 mi West 3.5 mph - N/A   Clear
11:55 AM -7.6 °F -16.5 °F -16.1 °F 67% 30.40 in 10.0 mi West 3.5 mph - N/A   Clear
12:15 PM -6.7 °F -15.5 °F -15.7 °F 65% 30.40 in 10.0 mi WSW 3.5 mph - N/A   Clear
12:35 PM -5.6 °F -14.3 °F -15.3 °F 63% 30.40 in 10.0 mi WSW 3.5 mph - N/A   Clear
12:55 PM -4.7 °F -15.4 °F -14.8 °F 62% 30.40 in 10.0 mi WSW 4.6 mph - N/A   Clear
1:15 PM -4.0 °F -14.6 °F -14.1 °F 62% 30.40 in 10.0 mi West 4.6 mph - N/A   Clear
1:35 PM -3.1 °F -13.5 °F -13.7 °F 61% 30.39 in 10.0 mi West 4.6 mph - N/A   Clear
1:55 PM -1.8 °F -13.7 °F -13.0 °F 59% 30.40 in 10.0 mi West 5.8 mph - N/A   Clear
2:15 PM -0.9 °F -12.7 °F -12.3 °F 59% 30.40 in 10.0 mi West 5.8 mph - N/A   Clear
2:35 PM -0.4 °F -12.0 °F -11.9 °F 58% 30.40 in 10.0 mi WNW 5.8 mph - N/A   Clear
2:55 PM 0.1 °F -11.4 °F -11.7 °F 57% 30.40 in 10.0 mi WNW 5.8 mph - N/A   Clear
3:15 PM -0.0 °F -11.6 °F -12.1 °F 57% 30.41 in 10.0 mi West 5.8 mph - N/A   Clear
3:35 PM -0.0 °F -9.9 °F -12.1 °F 57% 30.42 in 10.0 mi West 4.6 mph - N/A   Clear
3:55 PM -0.4 °F -8.3 °F -12.3 °F 57% 30.42 in 10.0 mi West 3.5 mph - N/A   Clear
4:15 PM -0.8 °F - -12.5 °F 58% 30.41 in 10.0 mi Calm Calm - N/A   Clear
4:35 PM -1.1 °F - -12.3 °F 59% 30.42 in 10.0 mi Calm Calm - N/A   Clear
4:55 PM -3.8 °F - -13.2 °F 64% 30.42 in 10.0 mi Calm Calm - N/A   Clear
5:15 PM -5.8 °F - -13.9 °F 68% 30.42 in 10.0 mi Calm Calm - N/A   Clear
5:35 PM -9.9 °F - -16.8 °F 72% 30.43 in 10.0 mi Calm Calm - N/A   Clear
5:55 PM -9.4 °F - -16.4 °F 71% 30.42 in 10.0 mi Calm Calm - N/A   Clear
6:15 PM -10.8 °F -20.2 °F -17.0 °F 74% 30.43 in 10.0 mi SSW 3.5 mph - N/A   Clear
6:35 PM -14.1 °F -23.9 °F -18.9 °F 79% 30.43 in 10.0 mi SW 3.5 mph - N/A   Clear
6:55 PM -15.0 °F - -20.4 °F 77% 30.43 in 10.0 mi Calm Calm - N/A   Clear
7:15 PM -13.9 °F - -18.8 °F 79% 30.44 in 10.0 mi Calm Calm - N/A   Clear
7:35 PM -15.7 °F - -20.7 °F 78% 30.44 in 10.0 mi Calm Calm - N/A   Clear
7:55 PM -15.0 °F - -19.7 °F 79% 30.45 in 10.0 mi Calm Calm - N/A   Clear
8:15 PM -18.4 °F - -24.5 °F 74% 30.45 in 10.0 mi Calm Calm - N/A   Clear
8:35 PM -20.6 °F - -26.5 °F 74% 30.45 in 10.0 mi Calm Calm - N/A   Clear
8:55 PM -20.7 °F - -26.7 °F 74% 30.45 in 10.0 mi Calm Calm - N/A   Clear
9:15 PM -21.8 °F - -28.1 °F 73% 30.45 in 10.0 mi Calm Calm - N/A   Clear
9:35 PM -22.2 °F - -28.5 °F 72% 30.45 in 10.0 mi Calm Calm - N/A   Clear
9:55 PM -24.5 °F - -31.2 °F 71% 30.45 in 10.0 mi Calm Calm - N/A   Clear
10:15 PM -24.7 °F - -31.0 °F 72% 30.45 in 10.0 mi Calm Calm - N/A   Clear
10:35 PM -24.9 °F - -31.2 °F 72% 30.45 in 10.0 mi Calm Calm - N/A   Clear
10:55 PM -26.5 °F - -33.0 °F 71% 30.44 in 10.0 mi Calm Calm - N/A   Clear
11:15 PM -25.4 °F - -32.3 °F 70% 30.43 in 10.0 mi Calm Calm - N/A   Clear
11:35 PM -27.9 °F - -35.5 °F 67% 30.43 in 10.0 mi Calm Calm - N/A   Clear
11:55 PM -28.3 °F - -35.0 °F 70% 30.42 in 10.0 mi Calm Calm - N/A   Clear